760  
ASUS43 KFSD 241510  
RWRFSD  
 
WEATHER ROUNDUP FOR SE SOUTH DAKOTA/SW MINNESOTA/NW IOWA  
NATIONAL WEATHER SERVICE SIOUX FALLS SD  
1000 AM CDT SUN MAR 24 2019  
 
NOTE: "FAIR" INDICATES FEW OR NO CLOUDS BELOW 12,000 FEET WITH NO  
SIGNIFICANT WEATHER AND OR S TO VISIBILITY
.  
 
 
SDZ038>040-050-052>070-241600-  
SOUTHEAST SOUTH DAKOTA  
 
CITY SKY/WX TMP DP RH WIND PRES REMARKS
 
BROOKINGS LGT RAIN 41 37 86 NE3 30.11  
CHAMBERLAIN CLOUDY 41 41 100 N6 30.12R  
HURON CLOUDY 40 37 89 N5 30.11R  
MADISON LGT RAIN 41 41 100 NE9 30.10R  
MITCHELL CLOUDY 40 36 86 NW8 30.12R  
SIOUX FALLS CLOUDY 43 37 79 N10 30.08R  
WINNER CLOUDY 38 35 89 W7 30.12R FOG  
YANKTON CLOUDY 43 39 86 N10 30.07R  

 
 
MNZ071-072-080-081-089-090-097-098-241600-  
SOUTHWEST MINNESOTA  
 
CITY SKY/WX TMP DP RH WIND PRES REMARKS
 
FAIRMONT CLOUDY 40 37 89 NE7 30.08S  
JACKSON CLOUDY 39 36 87 N10 30.07S  
LUVERNE CLOUDY 41 36 81 NE12 30.07S  
MARSHALL MIX PCPN 37 37 100 W3 30.12S FOG  
MONTEVIDEO CLOUDY 39 37 93 N5 30.12R  
PIPESTONE PTSUNNY 39 37 93 NE10 30.08R  
REDWOOD FALLS CLOUDY 42 39 89 E3 30.10S  
TRACY CLOUDY 40 40 100 N3 30.11R FOG  
WINDOM CLOUDY 39 37 93 N9 30.07S  
WORTHINGTON CLOUDY 40 37 89 N10 30.07R  

 
 
IAZ001>003-012>014-020>022-031-032-NEZ013-014-SDZ071-241600-  
NORTHWEST IOWA  
 
CITY SKY/WX TMP DP RH WIND PRES REMARKS
 
CHEROKEE CLOUDY 40 40 100 N8 30.03S FOG  
DENISON LGT RAIN 41 41 100 E8 30.00S  
ESTHERVILLE CLOUDY 41 38 89 NE10 30.05S  
LE MARS CLOUDY 41 41 100 NE9 30.04S  
SHELDON CLOUDY 41 41 100 NE12 30.03S FOG  
SIOUX CITY CLOUDY 42 40 92 N9 30.03R  
SPENCER CLOUDY 44 40 85 NE10 30.04F  
STORM LAKE FOG 39 39 100 NE12 29.99R VSB<1/4  

 
 
ABBREVIATIONS USED IN REMARKS  
TC - TEMPERATURE IN CELSIUS  
WCI - WIND CHILL INDEX  
HX - HEAT INDEX  
VSB - VISIBILITY  
 
 
 
CLICK HERE TO GO TO PREVIOUS BULLETINS.

The Nexlab SD Page
The Nexlab IA Page
The Nexlab MN Page
The Nexlab NE Page Main Text Page